OK1PHU-6 Weather Reports


time (UTC)temp
F
wind
direction
speed
knots
gust
knots
rain 1hr
in
rain 24hr
in
rain mn
in
humidity
%
barometer
mb
20260507021208 0 135 0.9 1.7 0.00 0.00 0.00 1007.5
20260507020121 0 135 0.0 2.6 0.00 0.00 0.00 1007.5
20260507015037 0 90 0.9 1.7 0.00 0.00 0.00 1007.3
20260507013955 0 135 0.0 0.9 0.00 0.00 0.00 1007.3
20260507012910 0 225 0.0 0.0 0.00 0.00 0.00 1007.4
20260507011827 0 225 0.0 1.7 0.00 0.00 0.00 1007.4
20260507010743 0 315 0.0 0.9 0.00 0.00 0.00 1007.2
20260507005659 0 0 0.0 1.7 0.00 0.00 0.00 1007.4
20260507004615 0 315 0.0 3.5 0.00 0.00 0.00 1007.1
20260507003530 0 315 0.9 2.6 0.00 0.00 0.00 1007.2
20260507002447 0 315 0.0 3.5 0.00 0.00 0.00 1006.8
20260507001404 0 315 0.9 2.6 0.00 0.00 0.00 1006.7
20260507000321 0 45 1.7 2.6 0.00 0.00 0.00 1006.6
20260506235236 0 0 0.9 2.6 0.00 0.00 0.00 1006.5
20260506234156 0 315 0.0 0.9 0.00 0.00 0.00 1006.4
20260506233113 0 0 0.0 1.7 0.00 0.00 0.00 1006.3
20260506232027 0 0 1.7 3.5 0.00 0.00 0.00 1006.3
20260506230942 0 0 0.9 5.2 0.00 0.00 0.00 1006.5
20260506225859 0 23 3.5 4.3 0.00 0.00 0.00 1006.4
20260506224818 0 45 3.5 7.0 0.00 0.00 0.00 1006.4
20260506223735 0 0 2.6 5.2 0.00 0.00 0.00 1006.4
20260506222653 0 0 1.7 5.2 0.00 0.00 0.00 1006.5
20260506221609 0 23 2.6 7.0 0.00 0.00 0.00 1006.4
20260506220526 0 45 3.5 9.6 0.00 0.00 0.00 1006.1
20260506215439 0 315 2.6 6.1 0.00 0.00 0.00 1005.5
20260506214359 0 270 1.7 2.6 0.00 0.00 0.00 1004.6
20260506213315 0 0 1.7 1.7 0.00 0.00 0.00 1004.3
20260506212232 0 135 0.0 0.9 0.00 0.00 0.00 1004.1
20260506211140 0 135 0.0 0.9 0.00 0.00 0.00 1004.1
20260506210051 0 315 0.0 0.9 0.00 0.00 0.00 1004.2
20260506205007 0 135 0.9 1.7 0.00 0.00 0.00 1004.2
20260506203925 0 135 0.0 0.0 0.00 0.00 0.00 1004.2
20260506202841 0 135 0.0 0.0 0.00 0.00 0.00 1004.3
20260506201801 0 135 0.0 1.7 0.00 0.00 0.00 1004.3
20260506200716 0 135 0.0 0.0 0.00 0.00 0.00 1004.5
20260506195632 0 135 0.0 0.0 0.00 0.00 0.00 1004.6
20260506194548 0 315 0.0 0.0 0.00 0.00 0.00 1004.5
20260506193506 0 270 0.9 1.7 0.00 0.00 0.00 1004.6
20260506192423 0 315 0.0 0.0 0.00 0.00 0.00 1004.6
20260506191340 0 0 0.0 1.7 0.00 0.00 0.00 1004.8
20260506190257 0 315 0.0 2.6 0.00 0.00 0.00 1004.7
20260506185212 0 225 3.5 3.5 0.00 0.00 0.00 1004.9
20260506184129 0 315 0.0 5.2 0.00 0.00 0.00 1004.7
20260506183044 0 0 1.7 4.3 0.00 0.00 0.00 1004.5
20260506181958 0 315 1.7 4.3 0.00 0.00 0.00 1004.2
20260506180913 0 90 0.9 4.3 0.00 0.00 0.00 1004.1
20260506175829 0 0 0.9 2.6 0.00 0.00 0.00 1003.8
20260506174746 0 0 1.7 2.6 0.00 0.00 0.00 1003.3
20260506173707 0 0 0.0 2.6 0.00 0.00 0.00 1003.1
20260506172624 0 90 1.7 2.6 0.00 0.00 0.00 1003.1
20260506171542 0 315 0.0 3.5 0.00 0.00 0.00 1003.2
20260506170503 0 0 0.9 3.5 0.00 0.00 0.00 1003.0
20260506165420 0 0 0.0 5.2 0.00 0.00 0.00 1003.0
20260506164336 0 45 0.0 3.5 0.00 0.00 0.00 1002.9
20260506163253 0 0 2.6 4.3 0.00 0.00 0.00 1003.0
20260506162209 0 45 0.9 7.0 0.00 0.00 0.00 1003.0
20260506161125 0 113 0.9 6.1 0.00 0.00 0.00 1002.7
20260506160041 0 180 4.3 12.2 0.00 0.00 0.00 1002.7
20260506154959 0 135 6.1 7.0 0.00 0.00 0.00 1002.8
20260506153918 0 180 4.3 17.4 0.00 0.00 0.00 1002.9
20260506152833 0 135 1.7 9.6 0.00 0.00 0.00 1002.9
20260506151752 0 135 5.2 12.2 0.00 0.00 0.00 1003.0
20260506150709 0 225 4.3 13.0 0.00 0.00 0.00 1002.9
20260506145624 0 90 5.2 13.9 0.00 0.00 0.00 1003.2
20260506143457 0 180 3.5 14.8 0.00 0.00 0.00 1003.5
20260506142416 0 180 3.5 15.6 0.00 0.00 0.00 1003.6
20260506141332 0 180 7.0 13.9 0.00 0.00 0.00 1003.7
20260506140249 0 180 3.5 7.0 0.00 0.00 0.00 1003.7
20260506135203 0 135 3.5 7.8 0.00 0.00 0.00 1003.8
20260506134118 0 90 3.5 7.0 0.00 0.00 0.00 1004.0
20260506133036 0 248 3.5 7.0 0.00 0.00 0.00 1004.2
20260506131950 0 270 5.2 9.6 0.00 0.00 0.00 1004.4
20260506130257 0 225 2.6 12.2 0.00 0.00 0.00 1004.6
20260506124449 0 270 5.2 12.2 0.00 0.00 0.00 1004.7
20260506122728 0 135 1.7 11.3 0.00 0.00 0.00 1004.9
20260506121646 0 180 5.2 9.6 0.00 0.00 0.00 1004.9
20260506120601 0 270 5.2 7.8 0.00 0.00 0.00 1004.9
20260506115518 0 135 3.5 10.4 0.00 0.00 0.00 1004.9
20260506114433 0 90 0.9 7.8 0.00 0.00 0.00 1005.1
20260506113350 0 180 2.6 7.0 0.00 0.00 0.00 1005.1
20260506112306 0 315 2.6 8.7 0.00 0.00 0.00 1005.2
20260506111224 0 203 5.2 7.0 0.00 0.00 0.00 1005.3
20260506110141 0 225 5.2 7.8 0.00 0.00 0.00 1005.5
20260506105057 0 225 3.5 8.7 0.00 0.00 0.00 1005.6
20260506104014 0 270 5.2 8.7 0.00 0.00 0.00 1005.6
20260506102930 0 225 5.2 9.6 0.00 0.00 0.00 1005.6
20260506101846 0 270 5.2 10.4 0.00 0.00 0.00 1005.8
20260506100804 0 135 7.0 16.5 0.00 0.00 0.00 1006.0
20260506095721 0 270 9.6 11.3 0.00 0.00 0.00 1006.0
20260506094638 0 225 8.7 11.3 0.00 0.00 0.00 1006.0
20260506093554 0 225 7.0 10.4 0.00 0.00 0.00 1006.2
20260506092513 0 315 5.2 11.3 0.00 0.00 0.00 1006.3
20260506091430 0 315 6.1 7.8 0.00 0.00 0.00 1006.3
20260506090347 0 270 6.1 8.7 0.00 0.00 0.00 1006.5
20260506085306 0 225 4.3 11.3 0.00 0.00 0.00 1006.5
20260506084221 0 270 2.6 11.3 0.00 0.00 0.00 1006.6
20260506083137 0 270 5.2 7.8 0.00 0.00 0.00 1006.6
20260506082054 0 270 4.3 9.6 0.00 0.00 0.00 1006.7
20260506081012 0 270 3.5 12.2 0.00 0.00 0.00 1006.7
20260506072721 0 225 5.2 8.7 0.00 0.00 0.00 1006.9
20260506071637 0 0 4.3 8.7 0.00 0.00 0.00 1006.8
20260506070554 0 0 6.1 14.8 0.00 0.00 0.00 1007.0
20260506061220 0 45 2.6 13.0 0.00 0.00 0.00 1007.0
20260506060138 0 0 5.2 8.7 0.00 0.00 0.00 1007.1
20260506050757 0 270 3.5 7.8 0.00 0.00 0.00 1006.8
20260506044630 0 225 0.0 2.6 0.00 0.00 0.00 1006.6
20260506043545 0 225 1.7 2.6 0.00 0.00 0.00 1006.6
20260506042459 0 270 0.0 2.6 0.00 0.00 0.00 1006.5
20260506041317 0 180 0.9 2.6 0.00 0.00 0.00 1006.3
20260506035019 0 180 3.5 3.5 0.00 0.00 0.00 1006.1
20260506033933 0 225 2.6 3.5 0.00 0.00 0.00 1006.0
20260506032850 0 135 0.0 3.5 0.00 0.00 0.00 1005.8
20260506031758 0 225 2.6 4.3 0.00 0.00 0.00 1006.1
20260506030701 0 180 0.0 1.7 0.00 0.00 0.00 1006.3
20260506025618 0 135 0.0 1.7 0.00 0.00 0.00 1006.1
20260506024534 0 135 0.9 0.9 0.00 0.00 0.00 1006.1
20260506023447 0 135 0.9 0.9 0.00 0.00 0.00 1005.9
20260506022402 0 135 0.9 1.7 0.00 0.00 0.00 1005.8